Location: Chicago
(41.8500°N, 87.6500°W)
Time: 14:14:24
(UTC-05:00)

ISS - Visible Passes

Search period start: 30 July 2014 00:00
Search period end: 09 August 2014 00:00
Orbit: 411 x 419 km, 51.6° (Epoch: 30 July)

Date Brightness Start Highest point End Pass type
(mag) Time Alt. Az. Time Alt. Az. Time Alt. Az.
30 Jul -0.4 01:57:03 17° NNW 01:57:12 17° N 01:59:30 10° NE visible
30 Jul -0.3 03:32:30 10° NW 03:34:52 18° N 03:37:15 10° NE visible
30 Jul -2.3 05:08:52 10° NW 05:12:10 52° NNE 05:15:27 10° ESE visible
31 Jul -0.1 01:09:54 14° NNE 01:09:54 14° NNE 01:10:42 10° NE visible
31 Jul -0.2 02:43:38 10° NW 02:45:48 16° N 02:47:58 10° NE visible
31 Jul -1.5 04:20:08 10° NW 04:23:15 34° NNE 04:26:22 10° E visible
01 Aug -0.2 01:55:45 14° NNW 01:56:42 15° N 01:58:47 10° NE visible
01 Aug -0.9 03:31:24 10° NW 03:34:16 25° NNE 03:37:08 10° E visible
01 Aug -3.2 05:07:53 10° WNW 05:11:12 61° SW 05:14:31 10° SE visible
02 Aug 0.0 01:09:02 13° NNE 01:09:02 13° NNE 01:09:44 10° NE visible
02 Aug -0.5 02:42:39 10° NW 02:45:14 20° NNE 02:47:49 10° ENE visible
02 Aug -3.1 04:19:01 10° NW 04:22:23 78° NE 04:25:44 10° ESE visible
02 Aug -2.0 21:02:08 10° S 21:04:41 21° SE 21:07:15 10° E visible
02 Aug -2.4 22:37:56 10° WSW 22:41:08 49° NNW 22:41:08 49° NNW visible
03 Aug -0.3 01:56:18 17° NNE 01:56:18 17° NNE 01:58:29 10° NE visible
03 Aug -2.3 03:30:13 10° NW 03:33:29 47° NNE 03:36:45 10° ESE visible
03 Aug -2.0 05:07:20 10° W 05:10:00 22° SW 05:12:40 10° S visible
03 Aug -3.3 21:48:58 10° WSW 21:52:17 82° NW 21:55:38 10° NE visible
03 Aug -0.6 23:26:49 10° WNW 23:29:24 20° NNW 23:29:58 20° N visible
04 Aug -0.9 02:46:03 21° ENE 02:46:03 21° ENE 02:47:35 10° E visible
04 Aug -2.8 04:19:14 18° WNW 04:21:17 38° SW 04:24:25 10° SSE visible
04 Aug -3.3 21:00:11 10° SW 21:03:27 57° SE 21:06:44 10° ENE visible
04 Aug -1.0 22:37:29 10° W 22:40:21 26° NNW 22:43:14 10° NE visible
05 Aug 0.0 00:15:50 10° NW 00:16:41 13° NNW 00:16:41 13° NNW visible
05 Aug -1.6 21:48:14 10° W 21:51:21 35° NNW 21:54:28 10° NE visible
05 Aug -0.3 23:26:37 10° NW 23:28:47 16° N 23:29:46 14° NNE visible
06 Aug -2.5 20:59:07 10° WSW 21:02:23 54° NNW 21:05:40 10° NE visible
06 Aug -0.4 22:37:16 10° WNW 22:39:39 18° NNW 22:42:02 10° NNE visible
07 Aug 0.1 00:15:03 10° NNW 00:15:29 12° NNW 00:15:29 12° NNW visible
07 Aug -0.7 21:47:54 10° WNW 21:50:32 21° NNW 21:53:11 10° NE visible
07 Aug -0.3 23:26:04 10° NW 23:28:10 15° N 23:28:15 15° N visible
08 Aug -1.1 20:58:33 10° W 21:01:28 27° NNW 21:04:23 10° NE visible
08 Aug -0.3 22:36:56 10° NW 22:39:00 15° N 22:40:57 11° NE visible
